Time,TemperatureF,DewpointF,PressureIn,WindDirection,WindDirectionDegrees,WindSpeedMPH,WindSpeedGustMPH,Humidity,HourlyPrecipIn,Conditions,Clouds,dailyrainin,SolarRadiationWatts/m^2,SoftwareType,DateUTC
2013-09-12 00:01:00,68.5,61.0,30.05,NNW,340,0.0,1.0,77,0.00,,,0.01,0,Wunderground v.1.15,2013-09-12 05:01:00,
2013-09-12 00:11:00,68.5,61.0,30.05,NNW,339,0.0,2.0,77,0.00,,,0.01,0,Wunderground v.1.15,2013-09-12 05:11:00,
2013-09-12 00:20:00,67.9,61.1,30.05,NW,309,1.0,3.0,79,0.00,,,0.01,0,Wunderground v.1.15,2013-09-12 05:20:00,
2013-09-12 00:31:00,68.0,61.2,30.05,NW,325,1.0,2.0,79,0.00,,,0.01,0,Wunderground v.1.15,2013-09-12 05:31:00,
2013-09-12 00:41:00,67.7,61.0,30.05,NW,306,1.0,2.0,79,0.00,,,0.01,0,Wunderground v.1.15,2013-09-12 05:41:00,
2013-09-12 00:51:00,67.5,60.8,30.05,NW,304,1.0,3.0,79,0.00,,,0.01,0,Wunderground v.1.15,2013-09-12 05:51:00,
2013-09-12 01:00:00,67.5,60.8,30.05,WNW,299,1.0,1.0,79,0.00,,,0.01,0,Wunderground v.1.15,2013-09-12 06:00:00,
2013-09-12 01:10:00,67.2,60.5,30.05,WNW,297,1.0,3.0,79,0.00,,,0.01,0,Wunderground v.1.15,2013-09-12 06:10:00,
2013-09-12 01:21:00,67.1,60.7,30.05,WNW,302,1.0,1.0,80,0.00,,,0.01,0,Wunderground v.1.15,2013-09-12 06:21:00,
2013-09-12 01:31:00,67.1,60.7,30.05,WNW,303,1.0,1.0,80,0.00,,,0.01,0,Wunderground v.1.15,2013-09-12 06:31:00,
2013-09-12 01:40:00,66.9,60.9,30.06,NNW,335,0.0,7.0,81,0.00,,,0.01,0,Wunderground v.1.15,2013-09-12 06:40:00,
2013-09-12 01:50:00,66.7,60.7,30.07,NW,311,5.0,8.0,81,0.00,,,0.01,0,Wunderground v.1.15,2013-09-12 06:50:00,
2013-09-12 02:01:00,66.7,60.3,30.07,NNW,331,6.0,6.0,80,0.00,,,0.01,0,Wunderground v.1.15,2013-09-12 07:01:00,
2013-09-12 02:11:00,66.1,60.1,30.07,NNW,327,3.0,3.0,81,0.00,,,0.01,0,Wunderground v.1.15,2013-09-12 07:11:00,
2013-09-12 02:21:00,65.3,59.7,30.07,NNW,338,2.0,7.0,82,0.00,,,0.01,0,Wunderground v.1.15,2013-09-12 07:21:00,
2013-09-12 02:30:00,64.7,59.1,30.08,NNW,345,1.0,1.0,82,0.00,,,0.01,0,Wunderground v.1.15,2013-09-12 07:30:00,
2013-09-12 02:40:00,64.5,58.5,30.08,NNE,18,1.0,1.0,81,0.00,,,0.00,0,Wunderground v.1.15,2013-09-12 07:40:00,
2013-09-12 02:51:00,64.3,58.3,30.09,NNE,15,1.0,1.0,81,0.00,,,0.00,0,Wunderground v.1.15,2013-09-12 07:51:00,
2013-09-12 03:01:00,63.8,57.9,30.09,North,5,1.0,3.0,81,0.00,,,0.00,0,Wunderground v.1.15,2013-09-12 08:01:00,
2013-09-12 03:11:00,63.6,57.7,30.09,NNW,342,1.0,1.0,81,0.00,,,0.00,0,Wunderground v.1.15,2013-09-12 08:11:00,
2013-09-12 03:20:00,63.5,57.2,30.09,North,360,1.0,3.0,80,0.00,,,0.00,0,Wunderground v.1.15,2013-09-12 08:20:00,
2013-09-12 03:30:00,63.5,56.5,30.10,NNE,17,2.0,5.0,78,0.00,,,0.00,0,Wunderground v.1.15,2013-09-12 08:30:00,
2013-09-12 03:41:00,63.2,55.9,30.10,NNE,28,2.0,5.0,77,0.00,,,0.00,0,Wunderground v.1.15,2013-09-12 08:41:00,
2013-09-12 03:50:00,62.8,55.8,30.10,NNE,16,1.0,1.0,78,0.00,,,0.00,0,Wunderground v.1.15,2013-09-12 08:50:00,
2013-09-12 04:00:00,62.4,55.4,30.10,NNE,16,0.0,3.0,78,0.00,,,0.00,0,Wunderground v.1.15,2013-09-12 09:00:00,
2013-09-12 04:11:00,62.0,55.8,30.10,NNE,16,0.0,2.0,80,0.00,,,0.00,0,Wunderground v.1.15,2013-09-12 09:11:00,
2013-09-12 04:20:00,61.5,55.3,30.10,NNE,16,0.0,2.0,80,0.00,,,0.00,0,Wunderground v.1.15,2013-09-12 09:20:00,
2013-09-12 04:30:00,61.1,55.2,30.10,North,360,0.0,1.0,81,0.00,,,0.00,0,Wunderground v.1.15,2013-09-12 09:30:00,
2013-09-12 04:41:00,60.9,55.0,30.10,NNW,336,1.0,1.0,81,0.00,,,0.00,0,Wunderground v.1.15,2013-09-12 09:41:00,
2013-09-12 04:51:00,60.8,54.9,30.10,NNW,336,0.0,3.0,81,0.00,,,0.00,0,Wunderground v.1.15,2013-09-12 09:51:00,
2013-09-12 05:01:00,60.5,55.0,30.11,NNW,336,1.0,1.0,82,0.00,,,0.00,0,Wunderground v.1.15,2013-09-12 10:01:00,
2013-09-12 05:10:00,59.9,54.7,30.11,NNW,336,0.0,3.0,83,0.00,,,0.00,0,Wunderground v.1.15,2013-09-12 10:10:00,
2013-09-12 05:20:00,59.6,54.8,30.11,NNW,336,0.0,3.0,84,0.00,,,0.00,0,Wunderground v.1.15,2013-09-12 10:20:00,
2013-09-12 05:30:00,59.3,54.5,30.11,NNW,336,0.0,1.0,84,0.00,,,0.00,0,Wunderground v.1.15,2013-09-12 10:30:00,
2013-09-12 05:41:00,58.9,54.4,30.11,NNW,336,1.0,1.0,85,0.00,,,0.00,0,Wunderground v.1.15,2013-09-12 10:41:00,
2013-09-12 05:51:00,58.5,54.3,30.11,NNW,336,0.0,3.0,86,0.00,,,0.00,0,Wunderground v.1.15,2013-09-12 10:51:00,
2013-09-12 06:00:00,58.0,54.2,30.11,NNW,336,0.0,0.0,87,0.00,,,0.00,0,Wunderground v.1.15,2013-09-12 11:00:00,
2013-09-12 06:10:00,57.7,54.2,30.12,NNW,336,0.0,1.0,88,0.00,,,0.00,0,Wunderground v.1.15,2013-09-12 11:10:00,
2013-09-12 06:21:00,57.4,53.9,30.12,NNW,336,0.0,3.0,88,0.00,,,0.00,0,Wunderground v.1.15,2013-09-12 11:21:00,
2013-09-12 06:30:00,57.1,53.6,30.12,NNW,336,0.0,2.0,88,0.00,,,0.00,0,Wunderground v.1.15,2013-09-12 11:30:00,
2013-09-12 06:40:00,57.0,53.5,30.13,NNW,336,0.0,2.0,88,0.00,,,0.00,0,Wunderground v.1.15,2013-09-12 11:40:00,
2013-09-12 06:51:00,56.8,53.0,30.13,NNW,336,0.0,2.0,87,0.00,,,0.00,0,Wunderground v.1.15,2013-09-12 11:51:00,
2013-09-12 07:01:00,56.8,53.0,30.13,NNW,331,1.0,1.0,87,0.00,,,0.00,5,Wunderground v.1.15,2013-09-12 12:01:00,
2013-09-12 07:10:00,56.8,53.0,30.13,NNW,331,0.0,3.0,87,0.00,,,0.00,12,Wunderground v.1.15,2013-09-12 12:10:00,
2013-09-12 07:21:00,57.3,53.1,30.14,North,355,1.0,3.0,86,0.00,,,0.00,30,Wunderground v.1.15,2013-09-12 12:21:00,
2013-09-12 07:31:00,57.9,53.4,30.14,NNW,344,1.0,3.0,85,0.00,,,0.00,42,Wunderground v.1.15,2013-09-12 12:31:00,
2013-09-12 07:41:00,58.3,53.5,30.14,NNW,331,3.0,4.0,84,0.00,,,0.00,42,Wunderground v.1.15,2013-09-12 12:41:00,
2013-09-12 07:51:00,58.5,53.4,30.15,North,11,2.0,2.0,83,0.00,,,0.00,39,Wunderground v.1.15,2013-09-12 12:51:00,
2013-09-12 08:01:00,58.9,53.4,30.15,NNW,345,1.0,5.0,82,0.00,,,0.00,40,Wunderground v.1.15,2013-09-12 13:01:00,
2013-09-12 08:10:00,59.5,54.0,30.15,NNE,21,1.0,4.0,82,0.00,,,0.00,44,Wunderground v.1.15,2013-09-12 13:10:00,
2013-09-12 08:20:00,60.2,54.3,30.15,NNE,19,2.0,2.0,81,0.00,,,0.00,77,Wunderground v.1.15,2013-09-12 13:20:00,
2013-09-12 08:31:00,61.3,54.4,30.15,North,360,2.0,4.0,78,0.00,,,0.00,250,Wunderground v.1.15,2013-09-12 13:31:00,
2013-09-12 08:40:00,62.0,54.0,30.15,NE,47,2.0,5.0,75,0.00,,,0.00,264,Wunderground v.1.15,2013-09-12 13:40:00,
2013-09-12 08:50:00,62.5,54.5,30.16,North,355,3.0,5.0,75,0.00,,,0.00,97,Wunderground v.1.15,2013-09-12 13:50:00,
2013-09-12 09:01:00,62.4,54.7,30.16,NNE,12,3.0,3.0,76,0.00,,,0.00,207,Wunderground v.1.15,2013-09-12 14:01:00,
2013-09-12 09:10:00,63.3,55.2,30.16,North,5,3.0,5.0,75,0.00,,,0.00,148,Wunderground v.1.15,2013-09-12 14:10:00,
2013-09-12 09:20:00,64.4,54.8,30.17,North,5,3.0,3.0,71,0.00,,,0.00,151,Wunderground v.1.15,2013-09-12 14:20:00,
2013-09-12 09:31:00,66.4,55.1,30.17,North,360,3.0,6.0,67,0.00,,,0.00,392,Wunderground v.1.15,2013-09-12 14:31:00,
2013-09-12 09:41:00,68.1,54.1,30.17,NNE,17,5.0,5.0,61,0.00,,,0.00,417,Wunderground v.1.15,2013-09-12 14:41:00,
2013-09-12 09:50:00,69.1,54.6,30.18,North,351,4.0,12.0,60,0.00,,,0.00,443,Wunderground v.1.15,2013-09-12 14:50:00,
2013-09-12 10:01:00,70.1,53.2,30.18,North,355,5.0,12.0,55,0.00,,,0.00,478,Wunderground v.1.15,2013-09-12 15:01:00,
2013-09-12 10:11:00,70.6,54.1,30.18,NNE,26,5.0,11.0,56,0.00,,,0.00,504,Wunderground v.1.15,2013-09-12 15:11:00,
2013-09-12 10:20:00,71.8,53.2,30.19,NNE,28,5.0,5.0,52,0.00,,,0.00,527,Wunderground v.1.15,2013-09-12 15:20:00,
2013-09-12 10:31:00,72.0,53.4,30.19,North,360,6.0,11.0,52,0.00,,,0.00,552,Wunderground v.1.15,2013-09-12 15:31:00,
2013-09-12 10:41:00,72.7,52.4,30.19,NNE,22,7.0,7.0,49,0.00,,,0.00,578,Wunderground v.1.15,2013-09-12 15:41:00,
2013-09-12 10:51:00,74.1,53.7,30.19,North,351,6.0,13.0,49,0.00,,,0.00,601,Wunderground v.1.15,2013-09-12 15:51:00,
2013-09-12 11:00:00,73.6,50.9,30.19,NNW,340,8.0,19.0,45,0.00,,,0.00,624,Wunderground v.1.15,2013-09-12 16:00:00,
2013-09-12 11:10:00,74.1,50.8,30.19,NNW,342,9.0,9.0,44,0.00,,,0.00,647,Wunderground v.1.15,2013-09-12 16:10:00,
2013-09-12 11:20:00,75.0,51.0,30.20,NE,55,6.0,19.0,43,0.00,,,0.00,664,Wunderground v.1.15,2013-09-12 16:20:00,
2013-09-12 11:31:00,75.6,50.2,30.20,North,5,8.0,8.0,41,0.00,,,0.00,687,Wunderground v.1.15,2013-09-12 16:31:00,
2013-09-12 11:40:00,75.9,49.8,30.20,NNE,20,8.0,16.0,40,0.00,,,0.00,703,Wunderground v.1.15,2013-09-12 16:40:00,
2013-09-12 11:50:00,75.7,49.7,30.20,North,355,8.0,8.0,40,0.00,,,0.00,712,Wunderground v.1.15,2013-09-12 16:50:00,
2013-09-12 12:01:00,75.8,48.4,30.20,NNE,30,9.0,16.0,38,0.00,,,0.00,722,Wunderground v.1.15,2013-09-12 17:01:00,
2013-09-12 12:11:00,76.3,48.8,30.20,North,355,9.0,9.0,38,0.00,,,0.00,742,Wunderground v.1.15,2013-09-12 17:11:00,
2013-09-12 12:20:00,76.4,49.6,30.19,North,360,7.0,7.0,39,0.00,,,0.00,751,Wunderground v.1.15,2013-09-12 17:20:00,
2013-09-12 12:30:00,76.2,48.7,30.19,NNW,332,7.0,7.0,38,0.00,,,0.00,756,Wunderground v.1.15,2013-09-12 17:30:00,
2013-09-12 12:41:00,76.1,50.0,30.19,NNE,24,8.0,14.0,40,0.00,,,0.00,763,Wunderground v.1.15,2013-09-12 17:41:00,
2013-09-12 12:51:00,76.4,49.6,30.19,North,355,8.0,8.0,39,0.00,,,0.00,770,Wunderground v.1.15,2013-09-12 17:51:00,
2013-09-12 13:00:00,76.4,49.6,30.19,NNE,13,10.0,10.0,39,0.00,,,0.00,770,Wunderground v.1.15,2013-09-12 18:00:00,
2013-09-12 13:10:00,77.0,49.4,30.18,ENE,78,8.0,20.0,38,0.00,,,0.00,772,Wunderground v.1.15,2013-09-12 18:10:00,
2013-09-12 13:21:00,76.4,49.6,30.18,NE,47,8.0,20.0,39,0.00,,,0.00,772,Wunderground v.1.15,2013-09-12 18:21:00,
2013-09-12 13:31:00,76.9,50.7,30.18,NNE,20,6.0,16.0,40,0.00,,,0.00,770,Wunderground v.1.15,2013-09-12 18:31:00,
2013-09-12 13:41:00,77.2,50.3,30.17,North,5,7.0,7.0,39,0.00,,,0.00,763,Wunderground v.1.15,2013-09-12 18:41:00,
2013-09-12 13:51:00,77.1,50.2,30.17,NNE,27,8.0,15.0,39,0.00,,,0.00,761,Wunderground v.1.15,2013-09-12 18:51:00,
2013-09-12 14:00:00,76.8,49.3,30.17,North,360,8.0,8.0,38,0.00,,,0.00,759,Wunderground v.1.15,2013-09-12 19:00:00,
2013-09-12 14:11:00,77.5,50.6,30.17,North,9,7.0,7.0,39,0.00,,,0.00,747,Wunderground v.1.15,2013-09-12 19:11:00,
2013-09-12 14:21:00,78.1,50.4,30.17,NNE,16,7.0,7.0,38,0.00,,,0.00,733,Wunderground v.1.15,2013-09-12 19:21:00,
2013-09-12 14:30:00,77.2,48.9,30.16,NNW,330,8.0,8.0,37,0.00,,,0.00,726,Wunderground v.1.15,2013-09-12 19:30:00,
2013-09-12 14:40:00,78.0,49.6,30.16,NW,319,7.0,15.0,37,0.00,,,0.00,712,Wunderground v.1.15,2013-09-12 19:40:00,
2013-09-12 14:50:00,78.0,49.6,30.16,NNW,347,6.0,15.0,37,0.00,,,0.00,701,Wunderground v.1.15,2013-09-12 19:50:00,
2013-09-12 15:01:00,78.0,49.6,30.15,NE,47,7.0,16.0,37,0.00,,,0.00,686,Wunderground v.1.15,2013-09-12 20:01:00,
2013-09-12 15:10:00,78.3,51.3,30.15,NNE,28,8.0,8.0,39,0.00,,,0.00,612,Wunderground v.1.15,2013-09-12 20:10:00,
2013-09-12 15:21:00,77.9,49.5,30.15,ENE,70,7.0,18.0,37,0.00,,,0.00,635,Wunderground v.1.15,2013-09-12 20:21:00,
2013-09-12 15:31:00,77.7,50.8,30.15,North,5,7.0,14.0,39,0.00,,,0.00,642,Wunderground v.1.15,2013-09-12 20:31:00,
2013-09-12 15:40:00,78.1,51.1,30.15,NNW,336,8.0,8.0,39,0.00,,,0.00,621,Wunderground v.1.15,2013-09-12 20:40:00,
2013-09-12 15:50:00,78.1,49.7,30.15,ENE,58,6.0,6.0,37,0.00,,,0.00,628,Wunderground v.1.15,2013-09-12 20:50:00,
2013-09-12 16:01:00,78.5,49.3,30.14,NNW,328,7.0,16.0,36,0.00,,,0.00,575,Wunderground v.1.15,2013-09-12 21:01:00,
2013-09-12 16:11:00,77.6,49.3,30.14,NNW,346,9.0,9.0,37,0.00,,,0.00,548,Wunderground v.1.15,2013-09-12 21:11:00,
2013-09-12 16:20:00,77.7,50.8,30.14,North,360,7.0,20.0,39,0.00,,,0.00,519,Wunderground v.1.15,2013-09-12 21:20:00,
2013-09-12 16:30:00,77.6,50.0,30.14,North,5,5.0,12.0,38,0.00,,,0.00,496,Wunderground v.1.15,2013-09-12 21:30:00,
2013-09-12 16:41:00,76.9,50.1,30.14,NNW,333,6.0,12.0,39,0.00,,,0.00,473,Wunderground v.1.15,2013-09-12 21:41:00,
2013-09-12 16:51:00,76.8,50.0,30.14,NNE,30,6.0,12.0,39,0.00,,,0.00,445,Wunderground v.1.15,2013-09-12 21:51:00,
2013-09-12 17:01:00,76.4,49.6,30.14,NNW,333,7.0,7.0,39,0.00,,,0.00,401,Wunderground v.1.15,2013-09-12 22:01:00,
2013-09-12 17:11:00,76.5,50.4,30.14,North,360,6.0,6.0,40,0.00,,,0.00,424,Wunderground v.1.15,2013-09-12 22:11:00,
2013-09-12 17:21:00,76.0,49.9,30.14,North,5,6.0,6.0,40,0.00,,,0.00,366,Wunderground v.1.15,2013-09-12 22:21:00,
2013-09-12 17:30:00,76.5,50.4,30.14,NNW,337,5.0,15.0,40,0.00,,,0.00,116,Wunderground v.1.15,2013-09-12 22:30:00,
2013-09-12 17:41:00,76.1,50.0,30.14,NNW,336,8.0,15.0,40,0.00,,,0.00,134,Wunderground v.1.15,2013-09-12 22:41:00,
2013-09-12 17:51:00,75.8,50.4,30.13,NNE,14,7.0,7.0,41,0.00,,,0.00,200,Wunderground v.1.15,2013-09-12 22:51:00,
2013-09-12 18:00:00,75.4,50.1,30.14,NNE,12,7.0,7.0,41,0.00,,,0.00,220,Wunderground v.1.15,2013-09-12 23:00:00,
2013-09-12 18:10:00,74.9,50.3,30.14,NNW,342,5.0,11.0,42,0.00,,,0.00,53,Wunderground v.1.15,2013-09-12 23:10:00,
2013-09-12 18:21:00,74.5,49.9,30.14,North,5,5.0,11.0,42,0.00,,,0.00,32,Wunderground v.1.15,2013-09-12 23:21:00,
2013-09-12 18:31:00,74.1,50.2,30.14,NNW,328,5.0,5.0,43,0.00,,,0.00,28,Wunderground v.1.15,2013-09-12 23:31:00,
2013-09-12 18:41:00,73.6,50.3,30.14,North,355,4.0,11.0,44,0.00,,,0.00,25,Wunderground v.1.15,2013-09-12 23:41:00,
2013-09-12 18:51:00,73.2,50.0,30.14,North,360,5.0,5.0,44,0.00,,,0.00,26,Wunderground v.1.15,2013-09-12 23:51:00,
2013-09-12 19:00:00,72.8,50.8,30.15,NNE,27,3.0,3.0,46,0.00,,,0.00,19,Wunderground v.1.15,2013-09-13 00:00:00,
2013-09-12 19:10:00,72.3,50.9,30.15,North,11,2.0,6.0,47,0.00,,,0.00,12,Wunderground v.1.15,2013-09-13 00:10:00,
2013-09-12 19:21:00,71.6,50.3,30.15,NNE,15,2.0,6.0,47,0.00,,,0.00,7,Wunderground v.1.15,2013-09-13 00:21:00,
2013-09-12 19:31:00,70.9,50.2,30.15,NNE,28,3.0,5.0,48,0.00,,,0.00,0,Wunderground v.1.15,2013-09-13 00:31:00,
2013-09-12 19:41:00,70.0,50.5,30.15,North,11,2.0,2.0,50,0.00,,,0.00,0,Wunderground v.1.15,2013-09-13 00:41:00,
2013-09-12 19:50:00,69.2,50.3,30.15,North,5,1.0,1.0,51,0.00,,,0.00,0,Wunderground v.1.15,2013-09-13 00:50:00,
2013-09-12 20:01:00,68.5,50.7,30.15,NNW,329,1.0,1.0,53,0.00,,,0.00,0,Wunderground v.1.15,2013-09-13 01:01:00,
2013-09-12 20:11:00,67.9,50.6,30.16,NNW,347,0.0,2.0,54,0.00,,,0.00,0,Wunderground v.1.15,2013-09-13 01:11:00,
2013-09-12 20:21:00,67.3,50.6,30.16,North,5,0.0,3.0,55,0.00,,,0.00,0,Wunderground v.1.15,2013-09-13 01:21:00,
2013-09-12 20:30:00,66.9,50.7,30.16,NNE,28,1.0,1.0,56,0.00,,,0.00,0,Wunderground v.1.15,2013-09-13 01:30:00,
2013-09-12 20:40:00,66.2,50.5,30.17,NNE,28,0.0,3.0,57,0.00,,,0.00,0,Wunderground v.1.15,2013-09-13 01:40:00,
2013-09-12 20:50:00,65.5,50.3,30.17,NNE,15,1.0,1.0,58,0.00,,,0.00,0,Wunderground v.1.15,2013-09-13 01:50:00,
2013-09-12 21:01:00,65.0,50.8,30.17,NNE,23,1.0,1.0,60,0.00,,,0.00,0,Wunderground v.1.15,2013-09-13 02:01:00,
2013-09-12 21:10:00,64.5,50.3,30.17,North,10,0.0,3.0,60,0.00,,,0.00,0,Wunderground v.1.15,2013-09-13 02:10:00,
2013-09-12 21:21:00,64.0,50.7,30.17,North,10,0.0,3.0,62,0.00,,,0.00,0,Wunderground v.1.15,2013-09-13 02:21:00,
2013-09-12 21:31:00,63.3,50.5,30.17,North,5,0.0,2.0,63,0.00,,,0.00,0,Wunderground v.1.15,2013-09-13 02:31:00,
2013-09-12 21:41:00,62.9,50.5,30.17,NNE,13,1.0,1.0,64,0.00,,,0.00,0,Wunderground v.1.15,2013-09-13 02:41:00,
2013-09-12 21:50:00,62.5,50.6,30.17,NNE,30,0.0,3.0,65,0.00,,,0.00,0,Wunderground v.1.15,2013-09-13 02:50:00,
2013-09-12 22:01:00,62.2,50.7,30.17,North,360,1.0,3.0,66,0.00,,,0.00,0,Wunderground v.1.15,2013-09-13 03:01:00,
2013-09-12 22:11:00,61.8,50.3,30.17,NE,34,1.0,3.0,66,0.00,,,0.00,0,Wunderground v.1.15,2013-09-13 03:11:00,
2013-09-12 22:20:00,61.4,50.3,30.17,NNE,24,1.0,4.0,67,0.00,,,0.00,0,Wunderground v.1.15,2013-09-13 03:20:00,
2013-09-12 22:31:00,61.1,50.1,30.17,NNE,22,2.0,4.0,67,0.00,,,0.00,0,Wunderground v.1.15,2013-09-13 03:31:00,
2013-09-12 22:41:00,61.0,50.4,30.17,North,11,2.0,2.0,68,0.00,,,0.00,0,Wunderground v.1.15,2013-09-13 03:41:00,
2013-09-12 22:51:00,60.8,50.6,30.18,North,9,2.0,2.0,69,0.00,,,0.00,0,Wunderground v.1.15,2013-09-13 03:51:00,
2013-09-12 23:01:00,60.6,50.4,30.18,North,351,2.0,2.0,69,0.00,,,0.00,0,Wunderground v.1.15,2013-09-13 04:01:00,
2013-09-12 23:11:00,60.2,50.4,30.18,NNW,347,1.0,1.0,70,0.00,,,0.00,0,Wunderground v.1.15,2013-09-13 04:11:00,
2013-09-12 23:21:00,59.7,49.9,30.18,NNE,23,0.0,4.0,70,0.00,,,0.00,0,Wunderground v.1.15,2013-09-13 04:21:00,
2013-09-12 23:31:00,59.2,50.2,30.18,NE,36,1.0,1.0,72,0.00,,,0.00,0,Wunderground v.1.15,2013-09-13 04:31:00,
2013-09-12 23:41:00,58.9,50.3,30.18,NE,49,1.0,4.0,73,0.00,,,0.00,0,Wunderground v.1.15,2013-09-13 04:41:00,
2013-09-12 23:50:00,58.6,50.0,30.18,NE,43,2.0,5.0,73,0.00,,,0.00,0,Wunderground v.1.15,2013-09-13 04:50:00,